Regional Weather Roundup
Issued by NWS State College, PA

Home | Current Version | Previous Version | Text Only | Print | Product List | Glossary On
Versions: 1 2 3 4 5 6 7 8 9 10 11 12 13 14 15 16 17 18 19 20 21 22 23 24 25 26 27 28 29 30 31 32 33 34 35 36 37 38 39 40 41 42 43 44 45 46 47 48 49 50
000
ASUS41 KCTP 241010
RWRCTP

REGIONAL WEATHER ROUNDUP
NATIONAL WEATHER SERVICE STATE COLLEGE PA
600 AM EDT SUN MAY 24 2015

Note: "fair" indicates few or no clouds below 12,000 feet with no
significant weather and/or obstructions to visibility.

* = STATION THAT DOES NOT REPORT PRECIPITATION /E.G. RAIN...SNOW...ETC/
    THUNDER OR FOG.

PAZ002>004-007>009-013>016-020>023-029>032-241100-
WESTERN PENNSYLVANIA

CITY           SKY/WX    TMP DP  RH WIND       PRES   REMARKS
ERIE           CLEAR     54  37  52 S8        30.29R
MEADVILLE      CLEAR     53  36  52 S7        30.32R
FRANKLIN*      CLEAR     43  36  75 S3        30.34S
NEW CASTLE     FAIR      42  42 100 CALM      30.35R
BEAVER COUNTY  NOT AVBL
BUTLER*        CLEAR     41  37  87 NE3       30.36R
PITTSBURGH INT PTCLDY    47  41  80 CALM      30.33R
PITTSBURGH     CLEAR     50  39  66 S8        30.34R
INDIANA*       CLEAR     43  41  93 CALM      30.38S
LATROBE        CLEAR     43  43 100 CALM      30.36S
WASHINGTON CO* CLEAR     41  39  93 CALM      30.36R
$$

PAZ004>006-010>012-017>019-024>028-033>037-041-042-045-046-049>053-241100-
CENTRAL PENNSYLVANIA

CITY           SKY/WX    TMP DP  RH WIND       PRES   REMARKS
BRADFORD       CLEAR     33  31  92 CALM      30.33S
DUBOIS         CLEAR     45  34  65 SE3       30.34R
CLEARFIELD     CLEAR     38  35  89 CALM      30.36R
JOHNSTOWN      CLEAR     49  35  58 SW6       30.37R
ALTOONA        CLEAR     46  36  68 CALM      30.37R
STATE COLLEGE  CLEAR     45  36  70 W5        30.36R
WILLIAMSPORT   CLEAR     39  36  89 NW3       30.37R
SELINSGROVE    CLEAR     40  38  93 CALM      30.37R
FT INDIANTOWN  CLEAR     39  38  96 CALM      30.37R
CAPITAL CITY   CLEAR     45  41  86 SW5       30.37R
HARRISBURG     PTCLDY    48  43  82 E3        30.36R
YORK           CLEAR     42  40  92 CALM      30.37R
$$

PAZ038>040-043-044-047-048-054-055-060>062-067>071-241100-
EASTERN PENNSYLVANIA

CITY           SKY/WX    TMP DP  RH WIND       PRES   REMARKS
SCRANTON       CLEAR     40  34  79 CALM      30.35R
MOUNT POCONO   CLEAR     43  33  68 W6        30.34R
ALLENTOWN      CLEAR     39  35  86 CALM      30.37R
QUAKERTOWN*    SUNNY     39  36  87 CALM      30.38R
READING        CLEAR     45  39  79 CALM      30.36R
LANCASTER      CLEAR     44  41  89 CALM      30.37R
COATESVILLE    SUNNY     52  43  71 CALM      30.39R
POTTSTOWN      CLEAR     41  39  93 CALM      30.39R
BLUE BELL      CLEAR     41  41 100 CALM      30.38R
DOYLESTOWN     CLEAR     43  39  86 VRB3      30.37R
WILLOW GROVE   NOT AVBL
NORTH PHILA    CLEAR     49  43  80 CALM      30.40R
PHILADELPHIA   PTCLDY    54  49  83 SW9       30.40R
$$



USA.gov is the U.S. government's official web portal to all federal, state and local government web resources and services.